TimeCDT,TemperatureF,Dew PointF,Humidity,Sea Level PressureIn,VisibilityMPH,Wind Direction,Wind SpeedMPH,Gust SpeedMPH,PrecipitationIn,Events,Conditions,WindDirDegrees,DateUTC
12:53 AM,46.0,45.0,96,30.03,10.0,WNW,3.5,-,N/A,,Partly Cloudy,290,2013-10-17 05:53:00
1:53 AM,46.0,45.0,96,30.03,10.0,Calm,Calm,-,N/A,,Scattered Clouds,0,2013-10-17 06:53:00
2:53 AM,44.1,43.0,96,30.05,10.0,NW,3.5,-,N/A,,Clear,320,2013-10-17 07:53:00
3:53 AM,44.1,43.0,96,30.04,10.0,NNW,3.5,-,N/A,,Partly Cloudy,330,2013-10-17 08:53:00
4:43 AM,42.8,42.8,100,30.04,10.0,Calm,Calm,-,N/A,,Scattered Clouds,0,2013-10-17 09:43:00
4:53 AM,43.0,42.1,97,30.04,10.0,Calm,Calm,-,N/A,,Mostly Cloudy,0,2013-10-17 09:53:00
5:35 AM,42.8,41.0,93,30.05,8.0,Calm,Calm,-,N/A,,Scattered Clouds,0,2013-10-17 10:35:00
5:53 AM,41.0,41.0,100,30.06,1.8,Calm,Calm,-,N/A,,Clear,0,2013-10-17 10:53:00
6:03 AM,41.0,39.2,93,30.06,6.0,Calm,Calm,-,N/A,,Clear,0,2013-10-17 11:03:00
6:18 AM,39.2,39.2,100,30.06,6.0,Calm,Calm,-,N/A,,Scattered Clouds,0,2013-10-17 11:18:00
6:53 AM,42.1,41.0,96,30.06,6.0,South,4.6,-,N/A,,Partly Cloudy,170,2013-10-17 11:53:00
7:00 AM,42.8,42.8,100,30.06,7.0,South,4.6,-,N/A,,Overcast,180,2013-10-17 12:00:00
7:53 AM,42.1,42.1,100,30.06,5.0,Calm,Calm,-,N/A,,Overcast,0,2013-10-17 12:53:00
8:53 AM,44.1,44.1,100,30.08,6.0,South,3.5,-,N/A,,Overcast,180,2013-10-17 13:53:00
9:53 AM,46.9,45.0,93,30.08,9.0,Calm,Calm,-,N/A,,Mostly Cloudy,0,2013-10-17 14:53:00
10:00 AM,46.4,44.6,93,30.08,10.0,Calm,Calm,-,N/A,,Scattered Clouds,0,2013-10-17 15:00:00
10:53 AM,54.0,44.1,69,30.08,10.0,West,6.9,-,N/A,,Clear,280,2013-10-17 15:53:00
11:53 AM,57.0,43.0,59,30.07,10.0,West,9.2,17.3,N/A,,Clear,280,2013-10-17 16:53:00
12:53 PM,59.0,44.1,58,30.05,10.0,West,9.2,-,N/A,,Clear,260,2013-10-17 17:53:00
1:53 PM,60.1,43.0,53,30.03,10.0,West,6.9,-,N/A,,Clear,260,2013-10-17 18:53:00
2:53 PM,62.1,42.1,48,30.00,10.0,WNW,6.9,-,N/A,,Clear,290,2013-10-17 19:53:00
3:53 PM,62.1,43.0,50,30.00,10.0,West,6.9,-,N/A,,Clear,280,2013-10-17 20:53:00
4:53 PM,61.0,42.1,50,29.99,10.0,West,4.6,-,N/A,,Clear,270,2013-10-17 21:53:00
5:53 PM,60.1,43.0,53,29.99,10.0,West,4.6,-,N/A,,Clear,270,2013-10-17 22:53:00
6:53 PM,53.1,46.0,77,30.00,10.0,Calm,Calm,-,N/A,,Clear,0,2013-10-17 23:53:00
7:53 PM,48.0,45.0,89,30.01,10.0,Calm,Calm,-,N/A,,Clear,0,2013-10-18 00:53:00
8:53 PM,46.9,46.0,97,30.03,10.0,Calm,Calm,-,N/A,,Clear,0,2013-10-18 01:53:00
9:53 PM,46.0,44.1,93,30.04,10.0,Calm,Calm,-,N/A,,Clear,0,2013-10-18 02:53:00
10:53 PM,45.0,44.1,97,30.04,10.0,Calm,Calm,-,N/A,,Clear,0,2013-10-18 03:53:00
11:53 PM,44.1,43.0,96,30.04,10.0,Calm,Calm,-,N/A,,Clear,0,2013-10-18 04:53:00